Погода в Канаклейке

Россия / Республика Мордовия     54°46′17″N   46°02′50″E
темп.,
°C
ветер,
м/с
пор.,
м/с
влажн.,
%
обл.,
%
осадки,
мм/ч
давл.,
гПа
погр.,
м
8 марта, пн
пн800:00−5ююз71592100 0.3 994726
03:00−3зюз101585100 1.4 993974
06:00−8з6138980 0.1 995368
09:00−8зюз8138987 0.2 999631
12:00−6зюз698856 0.0 1000625
15:00−5зюз359378 0.2 999470
18:00−7в1197100 1.1 100026
21:00−7ссз3894100 3.8 1003348
9 марта, вт
вт900:00−13з349518 0.0 100672
03:00−15зюз339614 0.0 100840
06:00−16зюз339759 0.0 100941
09:00−14з349673 0.1 1011194
12:00−10зсз2388100 0.1 1011417
15:00−10ссз3490100 0.2 1011472
18:00−13ссз369597 0.1 1012218
21:00−14сз379698 0.2 1014198
10 марта, ср
ср1000:00−15ссз479693 0.1 1015206
03:00−18ссз479793 0.1 1016191
06:00−21ссз489898 0.1 1018229
09:00−21ссз589698 0.1 1020350
12:00−19ссз5792100 0.0 1021484
15:00−20ссз5890100 0.0 1022507
18:00−22сз3596100 0.0 102398
21:00−24сз349982 0.0 102561
11 марта, чт
чт1100:00−25сз3310071 0.0 102644
03:00−26зсз339978 0.0 102744
06:00−26з349987 0.0 102866
09:00−21зсз489680 0.0 1028265
12:00−16зсз589176 0.0 1028377
15:00−13зсз698984 0.0 1027482
18:00−14зсз4994100 0.3 1028357
21:00−17зсз3497100 0.3 103079
12 марта, пт
пт1200:00−18зсз239999 0.0 103124
03:00−19з339996 0.1 103231
06:00−20з239985 0.0 103224
09:00−17зюз239562 0.0 1032129
12:00−13юз338845 0.0 1031263
15:00−11ююз248953 0.0 1030326
18:00−15ююз239417 0.0 102921
21:00−16ю339213 0.0 102933